Home   Weather   Melbourne Gardens   Past weeks
Flag for USA

Past Weather in Melbourne Gardens, Florida, USA — Yesterday and Last 2 Weeks

Now
78 °F

Clear.


Feels Like: 81 °F
Forecast: 90 / 79 °F
Wind: No wind

Location: Melbourne International Airport

Current Time: Jul 22, 2019 at 3:52:02 am

Latest Report: Jul 22, 2019 at 2:53 am


Visibility: 10 mi

Pressure: 30.02 "Hg

Humidity: 87%

Dew Point: 74 °F

Location of Melbourne GardensLocation

Past Weather in Melbourne Gardens — Graph

°F

Melbourne Gardens Temperature Yesterday

Maximum temperature yesterday: 89 °F (at 12:53 pm)
Minimum temperature yesterday: 77 °F (at 6:53 am)
Average temperature yesterday: 84 °F

High & Low Weather Summary for the Past Weeks

 TemperatureHumidityPressure
High92 °F (Jul 16, 2:53 pm)94% (Jul 7, 4:34 pm)30.15 "Hg (Jul 7, 4:34 pm)
Low75 °F (Jul 12, 4:21 am)54% (Jul 12, 4:53 pm)29.88 "Hg (Jul 8, 6:53 pm)
Average83 °F76%30.05 "Hg
* Reported Jul 7 1:53 am — Jul 22 1:53 am, Melbourne Gardens. Weather by CustomWeather, © 2019

Note: Actual official high and low records may vary slightly from our data, if they occured in-between our weather recording intervals... More about our weather records

Advertising

Melbourne Gardens Weather History for the Previous 24 Hours

Scroll right to see more
 ConditionsComfort  
Time TempWeatherWind HumidityBarometerVisibility
1:53 am
Mon, Jul 22
79 °FClear.No wind84%30.04 "Hg10 mi
12:53 am80 °FClear.5 mph85%30.05 "Hg10 mi
11:53 pm
Sun, Jul 21
80 °FClear.No wind81%30.05 "Hg10 mi
10:53 pm79 °FClear.3 mph84%30.06 "Hg10 mi
9:53 pm81 °FPassing clouds.3 mph85%30.05 "Hg10 mi
8:53 pm84 °FClear.5 mph74%30.06 "Hg10 mi
7:53 pm85 °FSunny.5 mph72%30.05 "Hg10 mi
6:53 pm85 °FScattered clouds.6 mph75%30.05 "Hg10 mi
5:53 pm86 °FPassing clouds.9 mph70%30.03 "Hg10 mi
4:53 pm87 °FSunny.10 mph67%30.03 "Hg10 mi
3:53 pm87 °FSunny.9 mph65%30.03 "Hg10 mi
2:53 pm88 °FSunny.13 mph67%30.05 "Hg10 mi
1:53 pm86 °FSunny.10 mph72%30.06 "Hg10 mi
12:53 pm89 °FSunny.10 mph68%30.07 "Hg10 mi
11:53 am88 °FSunny.12 mph67%30.07 "Hg10 mi
10:53 am87 °FPassing clouds.9 mph69%30.07 "Hg10 mi
9:53 am87 °FScattered clouds.10 mph72%30.07 "Hg10 mi
9:29 am86 °FPartly sunny.8 mph72%30.08 "Hg10 mi
8:53 am85 °FPassing clouds.5 mph75%30.08 "Hg10 mi
7:53 am81 °FSunny.No wind91%30.07 "Hg10 mi
6:53 am77 °FSunny.3 mph90%30.05 "Hg9 mi
5:53 am78 °FClear.No wind90%30.04 "Hg10 mi
4:53 am79 °FClear.3 mph90%30.03 "Hg10 mi
3:53 am80 °FClear.No wind87%30.04 "Hg10 mi
Weather by CustomWeather, © 2019

See weather overview